Time,TemperatureF,DewpointF,PressureIn,WindDirection,WindDirectionDegrees,WindSpeedMPH,WindSpeedGustMPH,Humidity,HourlyPrecipIn,Conditions,Clouds,dailyrainin,SoftwareType,DateUTC
2013-05-01 00:01:00,42.8,30.2,30.38,ESE,113,0.0,0.0,61,0.00,,,0.00,WUHU216HW,2013-05-01 04:01:00,
2013-05-01 00:11:00,42.5,30.3,30.38,ESE,113,0.0,0.0,62,0.00,,,0.00,WUHU216HW,2013-05-01 04:11:00,
2013-05-01 00:21:00,42.1,30.0,30.38,ESE,113,0.0,0.0,62,0.00,,,0.00,WUHU216HW,2013-05-01 04:21:00,
2013-05-01 00:22:00,42.1,30.0,30.38,ESE,113,0.0,0.0,62,0.00,,,0.00,WUHU216HW,2013-05-01 04:22:00,
2013-05-01 00:31:00,41.9,30.3,30.38,ESE,113,0.0,0.0,63,0.00,,,0.00,WUHU216HW,2013-05-01 04:31:00,
2013-05-01 00:41:00,41.6,29.9,30.39,ESE,113,0.0,0.0,63,0.00,,,0.00,WUHU216HW,2013-05-01 04:41:00,
2013-05-01 00:51:00,41.4,30.2,30.38,ESE,113,0.0,0.0,64,0.00,,,0.00,WUHU216HW,2013-05-01 04:51:00,
2013-05-01 01:01:00,41.4,30.2,30.38,ESE,113,0.0,0.0,64,0.00,,,0.00,WUHU216HW,2013-05-01 05:01:00,
2013-05-01 01:11:00,41.4,30.5,30.39,ESE,113,0.0,0.0,65,0.00,,,0.00,WUHU216HW,2013-05-01 05:11:00,
2013-05-01 01:21:00,41.2,30.7,30.39,ESE,113,0.0,0.0,66,0.00,,,0.00,WUHU216HW,2013-05-01 05:21:00,
2013-05-01 01:31:00,40.9,30.7,30.39,ESE,113,0.0,0.0,67,0.00,,,0.00,WUHU216HW,2013-05-01 05:31:00,
2013-05-01 01:41:00,40.7,30.5,30.39,ESE,113,0.0,0.0,67,0.00,,,0.00,WUHU216HW,2013-05-01 05:41:00,
2013-05-01 01:51:00,40.5,30.3,30.39,ESE,113,0.0,0.0,67,0.00,,,0.00,WUHU216HW,2013-05-01 05:51:00,
2013-05-01 02:01:00,40.3,30.2,30.38,ESE,113,0.0,0.0,67,0.00,,,0.00,WUHU216HW,2013-05-01 06:01:00,
2013-05-01 02:11:00,40.1,30.4,30.39,ESE,113,0.0,0.0,68,0.00,,,0.00,WUHU216HW,2013-05-01 06:11:00,
2013-05-01 02:21:00,40.0,30.6,30.38,ESE,113,0.0,0.0,69,0.00,,,0.00,WUHU216HW,2013-05-01 06:21:00,
2013-05-01 02:31:00,39.6,30.6,30.39,ESE,113,0.0,0.0,70,0.00,,,0.00,WUHU216HW,2013-05-01 06:31:00,
2013-05-01 02:41:00,39.2,30.6,30.38,ESE,113,0.0,0.0,71,0.00,,,0.00,WUHU216HW,2013-05-01 06:41:00,
2013-05-01 02:51:00,39.1,30.4,30.39,ESE,113,0.0,0.0,71,0.00,,,0.00,WUHU216HW,2013-05-01 06:51:00,
2013-05-01 03:01:00,38.7,30.4,30.39,ESE,113,0.0,0.0,72,0.00,,,0.00,WUHU216HW,2013-05-01 07:01:00,
2013-05-01 03:11:00,38.5,30.6,30.40,ESE,113,0.0,0.0,73,0.00,,,0.00,WUHU216HW,2013-05-01 07:11:00,
2013-05-01 03:21:00,38.5,30.6,30.40,SE,135,0.0,0.7,73,0.00,,,0.00,WUHU216HW,2013-05-01 07:21:00,
2013-05-01 03:31:00,38.3,30.8,30.40,SE,135,0.0,0.0,74,0.00,,,0.00,WUHU216HW,2013-05-01 07:31:00,
2013-05-01 03:41:00,38.3,30.4,30.39,SE,135,0.0,0.0,73,0.00,,,0.00,WUHU216HW,2013-05-01 07:41:00,
2013-05-01 03:51:00,38.2,30.6,30.40,SE,135,0.0,0.0,74,0.00,,,0.00,WUHU216HW,2013-05-01 07:51:00,
2013-05-01 04:01:00,37.8,30.2,30.40,SE,135,0.0,0.0,74,0.00,,,0.00,WUHU216HW,2013-05-01 08:01:00,
2013-05-01 04:11:00,37.8,30.2,30.41,SE,135,0.0,0.0,74,0.00,,,0.00,WUHU216HW,2013-05-01 08:11:00,
2013-05-01 04:21:00,37.6,30.1,30.40,SE,135,0.0,0.4,74,0.00,,,0.00,WUHU216HW,2013-05-01 08:21:00,
2013-05-01 04:31:00,37.6,30.4,30.40,SE,135,0.0,0.4,75,0.00,,,0.00,WUHU216HW,2013-05-01 08:31:00,
2013-05-01 04:41:00,37.8,30.6,30.40,SE,135,0.0,0.0,75,0.00,,,0.00,WUHU216HW,2013-05-01 08:41:00,
2013-05-01 04:51:00,37.6,30.4,30.40,SE,135,0.0,0.0,75,0.00,,,0.00,WUHU216HW,2013-05-01 08:51:00,
2013-05-01 05:01:00,37.6,30.4,30.41,SE,135,0.0,0.0,75,0.00,,,0.00,WUHU216HW,2013-05-01 09:01:00,
2013-05-01 05:11:00,37.4,30.2,30.41,SE,135,0.0,0.0,75,0.00,,,0.00,WUHU216HW,2013-05-01 09:11:00,
2013-05-01 05:21:00,37.3,30.4,30.41,SE,135,0.0,0.0,76,0.00,,,0.00,WUHU216HW,2013-05-01 09:21:00,
2013-05-01 05:31:00,37.1,30.3,30.42,SE,135,0.0,0.4,76,0.00,,,0.00,WUHU216HW,2013-05-01 09:31:00,
2013-05-01 05:41:00,37.1,30.3,30.42,SE,135,0.0,0.0,76,0.00,,,0.00,WUHU216HW,2013-05-01 09:41:00,
2013-05-01 05:51:00,36.9,30.3,30.42,SE,135,0.0,0.0,77,0.00,,,0.00,WUHU216HW,2013-05-01 09:51:00,
2013-05-01 06:01:00,36.9,30.3,30.42,SE,135,0.0,0.0,77,0.00,,,0.00,WUHU216HW,2013-05-01 10:01:00,
2013-05-01 06:11:00,36.7,29.9,30.42,SE,135,0.7,0.7,76,0.00,,,0.00,WUHU216HW,2013-05-01 10:11:00,
2013-05-01 06:21:00,37.1,30.3,30.43,SE,135,0.0,0.4,76,0.00,,,0.00,WUHU216HW,2013-05-01 10:21:00,
2013-05-01 06:31:00,37.4,30.9,30.43,SE,135,0.0,0.0,77,0.00,,,0.00,WUHU216HW,2013-05-01 10:31:00,
2013-05-01 06:41:00,37.4,30.9,30.44,SE,135,0.0,0.0,77,0.00,,,0.00,WUHU216HW,2013-05-01 10:41:00,
2013-05-01 06:51:00,37.6,31.1,30.44,SE,135,0.0,0.0,77,0.00,,,0.00,WUHU216HW,2013-05-01 10:51:00,
2013-05-01 07:01:00,38.2,32.0,30.44,SE,135,0.0,0.0,78,0.00,,,0.00,WUHU216HW,2013-05-01 11:01:00,
2013-05-01 07:11:00,38.7,32.8,30.44,SE,135,0.0,0.0,79,0.00,,,0.00,WUHU216HW,2013-05-01 11:11:00,
2013-05-01 07:21:00,39.4,33.5,30.45,SE,135,0.0,0.2,79,0.00,,,0.00,WUHU216HW,2013-05-01 11:21:00,
2013-05-01 07:31:00,40.9,35.1,30.45,ESE,113,0.0,0.4,80,0.00,,,0.00,WUHU216HW,2013-05-01 11:31:00,
2013-05-01 07:41:00,42.5,36.4,30.46,ENE,68,0.0,0.2,79,0.00,,,0.00,WUHU216HW,2013-05-01 11:41:00,
2013-05-01 07:51:00,45.5,37.1,30.47,ENE,68,0.4,1.3,72,0.00,,,0.00,WUHU216HW,2013-05-01 11:51:00,
2013-05-01 08:01:00,48.1,36.8,30.46,ESE,113,0.9,2.9,65,0.00,,,0.00,WUHU216HW,2013-05-01 12:01:00,
2013-05-01 08:11:00,50.6,38.0,30.47,East,90,1.1,2.7,62,0.00,,,0.00,WUHU216HW,2013-05-01 12:11:00,
2013-05-01 08:21:00,52.9,39.0,30.47,North,0,2.7,3.4,59,0.00,,,0.00,WUHU216HW,2013-05-01 12:21:00,
2013-05-01 08:31:00,55.4,39.9,30.48,South,180,1.1,2.7,56,0.00,,,0.00,WUHU216HW,2013-05-01 12:31:00,
2013-05-01 08:41:00,58.0,41.4,30.48,SE,135,0.7,3.1,54,0.00,,,0.00,WUHU216HW,2013-05-01 12:41:00,
2013-05-01 08:51:00,59.8,41.1,30.47,NNE,23,1.1,3.1,50,0.00,,,0.00,WUHU216HW,2013-05-01 12:51:00,
2013-05-01 09:01:00,60.5,41.2,30.48,ENE,68,1.1,4.7,49,0.00,,,0.00,WUHU216HW,2013-05-01 13:01:00,
2013-05-01 09:11:00,61.4,39.7,30.48,ESE,113,1.8,3.6,45,0.00,,,0.00,WUHU216HW,2013-05-01 13:11:00,
2013-05-01 09:22:00,61.9,39.1,30.48,North,0,2.0,3.6,43,0.00,,,0.00,WUHU216HW,2013-05-01 13:22:00,
2013-05-01 09:32:00,62.6,40.9,30.47,SE,135,1.6,2.5,45,0.00,,,0.00,WUHU216HW,2013-05-01 13:32:00,
2013-05-01 09:42:00,63.9,39.7,30.48,NNE,23,1.1,3.8,41,0.00,,,0.00,WUHU216HW,2013-05-01 13:42:00,
2013-05-01 09:52:00,64.4,40.1,30.48,SSW,203,0.9,2.7,41,0.00,,,0.00,WUHU216HW,2013-05-01 13:52:00,
2013-05-01 10:02:00,67.1,42.7,30.48,SE,135,1.6,2.5,41,0.00,,,0.00,WUHU216HW,2013-05-01 14:02:00,
2013-05-01 10:12:00,67.1,40.6,30.48,East,90,0.4,5.1,38,0.00,,,0.00,WUHU216HW,2013-05-01 14:12:00,
2013-05-01 10:22:00,69.1,43.8,30.48,NNE,23,1.3,2.0,40,0.00,,,0.00,WUHU216HW,2013-05-01 14:22:00,
2013-05-01 10:32:00,68.0,40.6,30.48,North,0,2.5,7.2,37,0.00,,,0.00,WUHU216HW,2013-05-01 14:32:00,
2013-05-01 10:42:00,68.2,39.3,30.48,South,180,0.2,4.5,35,0.00,,,0.00,WUHU216HW,2013-05-01 14:42:00,
2013-05-01 10:52:00,68.8,39.1,30.48,SW,225,2.2,3.6,34,0.00,,,0.00,WUHU216HW,2013-05-01 14:52:00,
2013-05-01 11:02:00,71.3,39.9,30.48,South,180,5.4,5.4,32,0.00,,,0.00,WUHU216HW,2013-05-01 15:02:00,
2013-05-01 11:12:00,71.6,37.7,30.48,South,180,1.6,4.3,29,0.00,,,0.00,WUHU216HW,2013-05-01 15:12:00,
2013-05-01 11:22:00,71.1,36.2,30.48,ENE,68,3.4,5.4,28,0.00,,,0.00,WUHU216HW,2013-05-01 15:22:00,
2013-05-01 11:32:00,70.6,38.4,30.47,ENE,68,1.8,4.0,31,0.00,,,0.00,WUHU216HW,2013-05-01 15:32:00,
2013-05-01 11:42:00,70.2,37.5,30.47,South,180,2.5,4.5,30,0.00,,,0.00,WUHU216HW,2013-05-01 15:42:00,
2013-05-01 11:52:00,71.6,40.1,30.47,SSE,158,1.3,6.3,32,0.00,,,0.00,WUHU216HW,2013-05-01 15:52:00,
2013-05-01 12:02:00,74.0,41.4,30.47,East,90,1.1,3.6,31,0.00,,,0.00,WUHU216HW,2013-05-01 16:02:00,
2013-05-01 12:07:00,74.9,41.4,30.47,North,0,4.0,4.0,30,0.00,,,0.00,WUHU216HW,2013-05-01 16:07:00,
2013-05-01 12:12:00,74.0,39.6,30.47,NNE,23,3.8,4.0,29,0.00,,,0.00,WUHU216HW,2013-05-01 16:12:00,
2013-05-01 12:17:00,73.4,39.2,30.47,SE,135,2.5,3.8,29,0.00,,,0.00,WUHU216HW,2013-05-01 16:17:00,
2013-05-01 12:27:00,74.2,39.8,30.47,North,0,5.8,5.8,29,0.00,,,0.00,WUHU216HW,2013-05-01 16:27:00,
2013-05-01 12:37:00,74.3,40.0,30.47,South,180,2.0,5.4,29,0.00,,,0.00,WUHU216HW,2013-05-01 16:37:00,
2013-05-01 12:47:00,73.8,36.5,30.47,North,0,1.1,7.6,26,0.00,,,0.00,WUHU216HW,2013-05-01 16:47:00,
2013-05-01 12:57:00,73.1,37.8,30.47,South,180,2.2,6.7,28,0.00,,,0.00,WUHU216HW,2013-05-01 16:57:00,
2013-05-01 13:07:00,73.1,38.9,30.47,NE,45,0.4,4.7,29,0.00,,,0.00,WUHU216HW,2013-05-01 17:07:00,
2013-05-01 13:17:00,72.2,39.2,30.47,North,0,2.5,6.3,30,0.00,,,0.00,WUHU216HW,2013-05-01 17:17:00,
2013-05-01 13:27:00,70.7,37.9,30.47,SSE,158,0.9,3.6,30,0.00,,,0.00,WUHU216HW,2013-05-01 17:27:00,
2013-05-01 13:37:00,70.4,39.1,30.47,East,90,7.6,7.6,32,0.00,,,0.00,WUHU216HW,2013-05-01 17:37:00,
2013-05-01 13:47:00,69.5,39.7,30.46,NE,45,2.5,3.6,34,0.00,,,0.00,WUHU216HW,2013-05-01 17:47:00,
2013-05-01 13:57:00,68.9,38.5,30.46,East,90,2.2,5.8,33,0.00,,,0.00,WUHU216HW,2013-05-01 17:57:00,
2013-05-01 14:07:00,68.8,39.1,30.46,ESE,113,4.3,4.3,34,0.00,,,0.00,WUHU216HW,2013-05-01 18:07:00,
2013-05-01 14:18:00,68.2,39.3,30.46,South,180,5.4,5.4,35,0.00,,,0.00,WUHU216HW,2013-05-01 18:18:00,
2013-05-01 14:28:00,68.0,38.4,30.45,SE,135,4.5,4.5,34,0.00,,,0.00,WUHU216HW,2013-05-01 18:28:00,
2013-05-01 14:38:00,67.7,37.4,30.45,SSW,203,5.1,5.1,33,0.00,,,0.00,WUHU216HW,2013-05-01 18:38:00,
2013-05-01 14:48:00,67.3,41.5,30.46,ESE,113,3.1,4.0,39,0.00,,,0.00,WUHU216HW,2013-05-01 18:48:00,
2013-05-01 14:58:00,66.4,41.9,30.46,SSW,203,2.5,4.7,41,0.00,,,0.00,WUHU216HW,2013-05-01 18:58:00,
2013-05-01 15:08:00,66.1,42.2,30.46,ESE,113,1.6,6.7,42,0.00,,,0.00,WUHU216HW,2013-05-01 19:08:00,
2013-05-01 15:18:00,66.2,42.4,30.46,SSE,158,2.0,4.3,42,0.00,,,0.00,WUHU216HW,2013-05-01 19:18:00,
2013-05-01 15:28:00,66.2,42.4,30.46,SSE,158,2.2,6.9,42,0.00,,,0.00,WUHU216HW,2013-05-01 19:28:00,
2013-05-01 15:38:00,65.9,43.3,30.46,SSE,158,4.0,5.8,44,0.00,,,0.00,WUHU216HW,2013-05-01 19:38:00,
2013-05-01 15:48:00,65.5,43.5,30.46,SW,225,2.2,5.6,45,0.00,,,0.00,WUHU216HW,2013-05-01 19:48:00,
2013-05-01 15:58:00,65.5,44.1,30.46,ENE,68,3.1,4.0,46,0.00,,,0.00,WUHU216HW,2013-05-01 19:58:00,
2013-05-01 16:08:00,65.2,44.4,30.46,East,90,2.5,3.8,47,0.00,,,0.00,WUHU216HW,2013-05-01 20:08:00,
2013-05-01 16:18:00,64.8,44.0,30.47,SSE,158,3.1,6.3,47,0.00,,,0.00,WUHU216HW,2013-05-01 20:18:00,
2013-05-01 16:29:00,65.0,44.2,30.47,SSE,158,1.6,5.4,47,0.00,,,0.00,WUHU216HW,2013-05-01 20:29:00,
2013-05-01 16:39:00,65.0,44.7,30.46,ESE,113,2.5,6.3,48,0.00,,,0.00,WUHU216HW,2013-05-01 20:39:00,
2013-05-01 16:49:00,64.8,44.0,30.47,SSW,203,5.4,5.4,47,0.00,,,0.00,WUHU216HW,2013-05-01 20:49:00,
2013-05-01 16:59:00,64.4,44.2,30.47,SSE,158,2.0,4.7,48,0.00,,,0.00,WUHU216HW,2013-05-01 20:59:00,
2013-05-01 17:09:00,65.0,44.7,30.47,NNE,23,0.4,4.0,48,0.00,,,0.00,WUHU216HW,2013-05-01 21:09:00,
2013-05-01 17:19:00,65.9,45.6,30.48,SSE,158,2.5,4.3,48,0.00,,,0.00,WUHU216HW,2013-05-01 21:19:00,
2013-05-01 17:29:00,65.9,45.0,30.48,South,180,0.9,5.1,47,0.00,,,0.00,WUHU216HW,2013-05-01 21:29:00,
2013-05-01 17:39:00,65.5,45.3,30.47,SSE,158,1.3,4.0,48,0.00,,,0.00,WUHU216HW,2013-05-01 21:39:00,
2013-05-01 17:49:00,65.2,44.4,30.48,ESE,113,2.5,3.8,47,0.00,,,0.00,WUHU216HW,2013-05-01 21:49:00,
2013-05-01 17:59:00,64.6,44.4,30.48,SW,225,4.3,5.1,48,0.00,,,0.00,WUHU216HW,2013-05-01 21:59:00,
2013-05-01 18:09:00,64.3,44.0,30.48,ESE,113,1.1,3.4,48,0.00,,,0.00,WUHU216HW,2013-05-01 22:09:00,
2013-05-01 18:19:00,63.9,44.3,30.49,NNE,23,2.0,2.7,49,0.00,,,0.00,WUHU216HW,2013-05-01 22:19:00,
2013-05-01 18:29:00,63.5,43.4,30.49,ENE,68,0.9,3.8,48,0.00,,,0.00,WUHU216HW,2013-05-01 22:29:00,
2013-05-01 18:39:00,63.4,43.8,30.49,South,180,2.9,2.9,49,0.00,,,0.00,WUHU216HW,2013-05-01 22:39:00,
2013-05-01 18:49:00,63.0,43.5,30.49,ESE,113,0.9,2.9,49,0.00,,,0.00,WUHU216HW,2013-05-01 22:49:00,
2013-05-01 19:00:00,62.5,43.6,30.50,SSE,158,0.2,2.7,50,0.00,,,0.00,WUHU216HW,2013-05-01 23:00:00,
2013-05-01 19:10:00,62.3,43.9,30.50,East,90,1.8,2.0,51,0.00,,,0.00,WUHU216HW,2013-05-01 23:10:00,
2013-05-01 19:20:00,62.6,44.2,30.50,SSE,158,1.1,1.1,51,0.00,,,0.00,WUHU216HW,2013-05-01 23:20:00,
2013-05-01 19:30:00,61.9,43.1,30.50,South,180,1.3,1.8,50,0.00,,,0.00,WUHU216HW,2013-05-01 23:30:00,
2013-05-01 19:47:00,59.8,42.1,30.50,South,180,0.0,0.0,52,0.00,,,0.00,WUHU216HW,2013-05-01 23:47:00,
2013-05-01 19:56:00,58.9,41.8,30.50,South,180,0.0,0.0,53,0.00,,,0.00,WUHU216HW,2013-05-01 23:56:00,
2013-05-01 20:06:00,58.0,41.4,30.50,SW,225,0.0,0.4,54,0.00,,,0.00,WUHU216HW,2013-05-02 00:06:00,
2013-05-01 20:16:00,57.1,40.6,30.51,SSE,158,0.4,0.4,54,0.00,,,0.00,WUHU216HW,2013-05-02 00:16:00,
2013-05-01 20:26:00,56.2,40.1,30.51,SSE,158,0.0,0.0,55,0.00,,,0.00,WUHU216HW,2013-05-02 00:26:00,
2013-05-01 20:37:00,55.4,39.9,30.51,SSE,158,0.0,0.0,56,0.00,,,0.00,WUHU216HW,2013-05-02 00:37:00,
2013-05-01 20:47:00,54.7,39.7,30.51,SSE,158,0.0,0.0,57,0.00,,,0.00,WUHU216HW,2013-05-02 00:47:00,
2013-05-01 20:57:00,54.0,39.1,30.51,SSE,158,0.0,0.0,57,0.00,,,0.00,WUHU216HW,2013-05-02 00:57:00,
2013-05-01 21:07:00,52.9,39.4,30.51,SSE,158,0.0,0.0,60,0.00,,,0.00,WUHU216HW,2013-05-02 01:07:00,
2013-05-01 21:17:00,52.2,39.2,30.52,SSE,158,0.0,0.4,61,0.00,,,0.00,WUHU216HW,2013-05-02 01:17:00,
2013-05-01 21:27:00,51.7,39.0,30.52,SSE,158,0.0,0.0,62,0.00,,,0.00,WUHU216HW,2013-05-02 01:27:00,
2013-05-01 21:37:00,51.1,38.9,30.52,SSE,158,0.0,0.0,63,0.00,,,0.00,WUHU216HW,2013-05-02 01:37:00,
2013-05-01 21:47:00,50.6,38.8,30.52,SSE,158,0.0,0.0,64,0.00,,,0.00,WUHU216HW,2013-05-02 01:47:00,
2013-05-01 21:57:00,50.0,38.4,30.52,SSE,158,0.0,0.0,64,0.00,,,0.00,WUHU216HW,2013-05-02 01:57:00,
2013-05-01 22:07:00,49.5,38.2,30.52,SSE,158,0.0,0.0,65,0.00,,,0.00,WUHU216HW,2013-05-02 02:07:00,
2013-05-01 22:17:00,49.3,38.4,30.52,SSE,158,0.0,0.0,66,0.00,,,0.00,WUHU216HW,2013-05-02 02:17:00,
2013-05-01 22:27:00,48.8,37.9,30.52,SSE,158,0.0,0.0,66,0.00,,,0.00,WUHU216HW,2013-05-02 02:27:00,
2013-05-01 22:37:00,48.6,38.1,30.52,SSE,158,0.0,0.0,67,0.00,,,0.00,WUHU216HW,2013-05-02 02:37:00,
2013-05-01 22:47:00,48.2,38.2,30.52,SSE,158,0.0,0.0,68,0.00,,,0.00,WUHU216HW,2013-05-02 02:47:00,
2013-05-01 22:57:00,47.9,37.8,30.52,SSE,158,0.0,0.0,68,0.00,,,0.00,WUHU216HW,2013-05-02 02:57:00,
2013-05-01 23:07:00,47.5,37.9,30.52,SSE,158,0.0,0.0,69,0.00,,,0.00,WUHU216HW,2013-05-02 03:07:00,
2013-05-01 23:17:00,47.2,37.9,30.52,SSE,158,0.0,0.0,70,0.00,,,0.00,WUHU216HW,2013-05-02 03:17:00,
2013-05-01 23:27:00,46.8,37.6,30.52,SSE,158,0.0,0.0,70,0.00,,,0.00,WUHU216HW,2013-05-02 03:27:00,
2013-05-01 23:37:00,46.4,38.0,30.52,SSE,158,0.0,0.0,72,0.00,,,0.00,WUHU216HW,2013-05-02 03:37:00,
2013-05-01 23:47:00,46.1,37.6,30.52,SSE,158,0.0,0.0,72,0.00,,,0.00,WUHU216HW,2013-05-02 03:47:00,
2013-05-01 23:58:00,45.9,37.5,30.52,SSE,158,0.0,0.0,72,0.00,,,0.00,WUHU216HW,2013-05-02 03:58:00,